Showing default

ORBASTRO-TR5, 63236

Orbit data source: Space-Track

ORBASTRO-TR5, 63236 is a UK payload satellite in SSO that was launched on Sat, 15 Mar 2025 UTC via an FALCON 9 launch vehicle from the Air Force Western Test Range (AFWTR). Payload-class satellites include a variety of spacecraft equipped with specific instruments for various scientific and technological missions. These include communications satellites like Starlink; space stations such as the ISS; scientific satellites like the Hubble; Earth observation satellites from companies like Planet Labs, Umbra, and HawkEye 360; GPS; miniature CubeSats for education and research; and military/defense satellites.

Loading next visibility...
Identifier
63236, 2025-052AC
Orbit
SSO
Country
Flag of UKUK
Related business
Manufacturer
OrbAstro
Mission
Operational Commercial Technology
Bus & Motor
CUBESAT 6U, Unknown motor
Mass
~10 kg wet, ~10 kg dry
Launch date (UTC)
2025-03-15 (1 year ago)
Launch vehicle
FALCON 9
Launch site
Air Force Western Test Range (AFWTR)
Object type
Payload
Rocket body
Debris
Shape & HBR
Box, 0.2 m
Radar Cross Section
0.035 m², Small (<0.1 m²)

Expand to show TLE details & history
Last TLE update: 5 hours ago

TLE from 5 hours ago
0 ORBASTRO-TR5
1 63236U 25052AC  26145.15639213  .00004125  00000-0  18457-3 0  9992
2 63236  97.3868  37.2386 0002519 208.9503 151.1594 15.21841329 66314
Epoch: 2026-05-25T03:45Z
TLE epoch observation values (Epoch: 2026-05-25T03:45:12.280Z)
Latitude
0.00002°
Longitude
98.1892°
Altitude
504.898 km
Speed
7.611 km/s
True Right ascension
02h 28m 57s
True Declination
0° 00' 00"
Sunlit
Object was in daylight at epoch
Visualization orbit readout
Latitude
Unknown
Longitude
Unknown
Altitude
Unknown
Speed
Unknown
Apparent Right ascension
Unknown
Apparent Declination
Unknown
Sunlit
N/A
Visualization observer readout
Local Sidereal Time
18:10:25
Azimuth
Unknown
Elevation
Unknown
Doppler factor
Unknown
Orbital elements
Apogee altitude
498.981 km
Perigee altitude
495.517 km
Semi-major axis
6,875.386 km
Eccentricity
0.00025
Inclination
97.3868°
RAAN
37.2386°
Arg. of periapsis
208.9503°
True anomaly
151.17332°
Mean anomaly
151.1594°
Eccentric anomaly
151.16636°
Mean motion
3.80713 °/min
Orbital period
94.56 mins
BSTAR
0.00018457
Loading maneuver chart data...
Computing Atmospheric mass density...
Loading historical data...
Loading historical data...
Loading historical data...
Loading historical data...
Loading historical data...
Loading historical data...
Loading historical data...

Documentation

Showing up to 5 results
|